Weather History for KLUM - September, 2012

Change the Weather History Date:

Monday, September 17, 2012

  Actual Average (KEAU) Record (KEAU)
Temperature  
Mean Temperature 54 °F 60 °F  
Max Temperature 64 °F 71 °F 93 °F (1948)
Min Temperature 44 °F 48 °F 31 °F (1959)
Degree Days  
Heating Degree Days 11 7  
Month to date heating degree days 72  
Since 1 July heating degree days 111  
Cooling Degree Days 0 1  
Month to date cooling degree days 38  
Year to date cooling degree days 565  
Growing Degree Days 4 (Base 50)    
Moisture  
Dew Point 41 °F    
Average Humidity 64    
Maximum Humidity 94    
Minimum Humidity 31    
Precipitation  
Precipitation 0.02 in 0.12 in 1.89 in (1942)
Month to date precipitation 2.13  
Year to date precipitation 24.25  
Snow  
Snow 0.00 in 0.00 in 0.00 in ()
Month to date snowfall 0.0  
Since 1 July snowfall 0.0  
Since 1 September snowfall 0.0  
Snow Depth -    
Sea Level Pressure  
Sea Level Pressure 29.93 in    
Wind  
Wind Speed 9 mph (NW)    
Max Wind Speed 15 mph    
Max Gust Speed 24 mph    
Visibility 10 miles    
Events Rain    
T = Trace of Precipitation, MM = Missing Value Source: NWS Daily Summary

Daily Weather History Graph

Daily Weather History Graph

Search for Another Location

Airport or City:

Trip Planner

Search our weather history database for the weather conditions in past years. The results will help you decide how hot, cold, wet, or windy it might be!

Date:

Astronomy

Sep. 17, 2012 Rise Set
Actual Time 6:49 AM CDT 7:13 PM CDT
Civil Twilight 6:19 AM CDT 7:42 PM CDT
Nautical Twilight 5:45 AM CDT 8:17 PM CDT
Astronomical Twilight 5:09 AM CDT 8:53 PM CDT
Moon 8:46 AM CDT (9/17) 7:46 PM CDT (9/17)
Length of Visible Light 13h 23m
Length of Day
12h 24m
Waxing Crescent, 3% of the Moon is Illuminated
Sep 17
Waxing Crescent
Sep 22
First Quarter
Sep 29
Full
Oct 8
Last Quarter
Oct 15
New

Hourly Weather History & Observations

Time (CDT) Temp. Windchill Dew Point Humidity Pressure Visibility Wind Dir Wind Speed Gust Speed Precip Events Conditions
12:15 AM 64.4 °F - 41.0 °F 42% 29.92 in 10.0 mi NNW 12.7 mph 19.6 mph N/A   Clear
12:35 AM 64.4 °F - 41.0 °F 42% 29.91 in 10.0 mi NNW 11.5 mph - N/A   Clear
12:55 AM 62.6 °F - 42.8 °F 48% 29.91 in 10.0 mi NNW 9.2 mph - N/A   Clear
1:15 AM 62.6 °F - 42.8 °F 48% 29.91 in 10.0 mi NNW 6.9 mph - N/A   Clear
1:35 AM 62.6 °F - 42.8 °F 48% 29.91 in 10.0 mi NNW 10.4 mph - N/A   Clear
1:55 AM 60.8 °F - 42.8 °F 52% 29.91 in 10.0 mi NNW 6.9 mph - N/A   Clear
2:15 AM 60.8 °F - 42.8 °F 52% 29.91 in 10.0 mi NNW 6.9 mph - N/A   Scattered Clouds
2:35 AM 60.8 °F - 44.6 °F 55% 29.90 in 10.0 mi NNW 6.9 mph - N/A   Scattered Clouds
2:55 AM 59.0 °F - 44.6 °F 59% 29.89 in 10.0 mi NNW 5.8 mph - N/A   Scattered Clouds
3:15 AM 59.0 °F - 44.6 °F 59% 29.90 in 10.0 mi NW 4.6 mph - N/A   Mostly Cloudy
3:35 AM 59.0 °F - 44.6 °F 59% 29.93 in 10.0 mi WNW 10.4 mph - N/A   Overcast
3:55 AM 57.2 °F - 46.4 °F 67% 29.92 in 10.0 mi NW 9.2 mph - N/A Rain Light Rain
4:15 AM 55.4 °F - 46.4 °F 72% 29.93 in 10.0 mi WNW 8.1 mph - N/A   Overcast
4:35 AM 55.4 °F - 46.4 °F 72% 29.93 in 10.0 mi NW 10.4 mph - N/A   Overcast
4:55 AM 55.4 °F - 44.6 °F 67% 29.93 in 10.0 mi NW 8.1 mph - N/A   Overcast
5:15 AM 55.4 °F - 44.6 °F 67% 29.93 in 10.0 mi NW 8.1 mph - N/A   Overcast
5:35 AM 53.6 °F - 46.4 °F 77% 29.93 in 10.0 mi NW 8.1 mph - N/A Rain Rain
5:55 AM 51.8 °F - 46.4 °F 82% 29.93 in 10.0 mi NNW 5.8 mph - N/A   Overcast
6:15 AM 51.8 °F - 48.2 °F 88% 29.95 in 10.0 mi West 8.1 mph - N/A Rain Light Rain
6:35 AM 51.8 °F - 48.2 °F 88% 29.92 in 7.0 mi NNW 5.8 mph - 0.01 in Rain Rain
7:15 AM 51.8 °F - 50.0 °F 94% 29.93 in 10.0 mi NNW 5.8 mph - 0.01 in Rain Rain
7:35 AM 51.8 °F - 50.0 °F 94% 29.93 in 10.0 mi West 4.6 mph - 0.01 in   Light Drizzle
7:55 AM 51.8 °F - 50.0 °F 94% 29.92 in 10.0 mi WNW 5.8 mph - 0.01 in   Light Drizzle
8:15 AM 51.8 °F - 50.0 °F 94% 29.93 in 10.0 mi WNW 8.1 mph - N/A   Overcast
8:35 AM 51.8 °F - 50.0 °F 94% 29.92 in 10.0 mi WNW 6.9 mph - N/A   Overcast
8:55 AM 51.8 °F - 48.2 °F 88% 29.93 in 10.0 mi NW 11.5 mph - N/A   Scattered Clouds
9:15 AM 51.8 °F - 46.4 °F 82% 29.93 in 10.0 mi WNW 9.2 mph - N/A   Scattered Clouds
9:35 AM 51.8 °F - 46.4 °F 82% 29.93 in 10.0 mi WNW 6.9 mph - N/A   Mostly Cloudy
9:55 AM 51.8 °F - 46.4 °F 82% 29.93 in 10.0 mi WNW 8.1 mph - N/A   Overcast
10:15 AM 51.8 °F - 46.4 °F 82% 29.94 in 10.0 mi WNW 6.9 mph - N/A   Mostly Cloudy
10:35 AM 51.8 °F - 46.4 °F 82% 29.95 in 10.0 mi WNW 10.4 mph - N/A   Drizzle
10:55 AM 50.0 °F - 46.4 °F 87% 29.96 in 10.0 mi WNW 10.4 mph - N/A   Drizzle
11:15 AM 50.0 °F - 46.4 °F 87% 29.96 in 10.0 mi WNW 6.9 mph - N/A   Overcast
11:35 AM 50.0 °F - 46.4 °F 87% 29.95 in 10.0 mi WNW 8.1 mph - N/A   Drizzle
11:55 AM 51.8 °F - 46.4 °F 82% 29.95 in 10.0 mi WNW 9.2 mph - N/A   Drizzle
12:15 PM 51.8 °F - 46.4 °F 82% 29.95 in 10.0 mi WNW 10.4 mph - N/A   Mostly Cloudy
12:35 PM 51.8 °F - 46.4 °F 82% 29.95 in 10.0 mi WNW 8.1 mph - N/A   Overcast
12:55 PM 53.6 °F - 46.4 °F 77% 29.96 in 10.0 mi WNW 10.4 mph - N/A   Overcast
1:15 PM 53.6 °F - 44.6 °F 72% 29.95 in 10.0 mi NW 9.2 mph - N/A   Overcast
1:35 PM 57.2 °F - 46.4 °F 67% 29.94 in 10.0 mi NNW 6.9 mph - N/A   Scattered Clouds
1:55 PM 59.0 °F - 44.6 °F 59% 29.94 in 10.0 mi NW 8.1 mph - N/A   Mostly Cloudy
2:15 PM 59.0 °F - 42.8 °F 55% 29.93 in 10.0 mi NW 15.0 mph 18.4 mph N/A   Mostly Cloudy
2:35 PM 60.8 °F - 41.0 °F 48% 29.92 in 10.0 mi NW 11.5 mph 16.1 mph N/A   Mostly Cloudy
2:55 PM 60.8 °F - 39.2 °F 45% 29.92 in 10.0 mi NW 10.4 mph 21.9 mph N/A   Mostly Cloudy
3:15 PM 60.8 °F - 37.4 °F 42% 29.92 in 10.0 mi NNW 12.7 mph 20.7 mph N/A   Overcast
3:35 PM 60.8 °F - 35.6 °F 39% 29.92 in 10.0 mi NNW 15.0 mph 18.4 mph N/A   Mostly Cloudy
4:15 PM 60.8 °F - 33.8 °F 36% 29.91 in 10.0 mi NW 13.8 mph 19.6 mph N/A   Mostly Cloudy
4:35 PM 59.0 °F - 33.8 °F 39% 29.91 in 10.0 mi NW 11.5 mph - N/A   Overcast
4:55 PM 59.0 °F - 33.8 °F 39% 29.91 in 10.0 mi NW 10.4 mph - N/A   Mostly Cloudy
5:15 PM 60.8 °F - 32.0 °F 34% 29.91 in 10.0 mi NW 10.4 mph 17.3 mph N/A   Scattered Clouds
5:35 PM 60.8 °F - 30.2 °F 31% 29.92 in 10.0 mi NW 13.8 mph 24.2 mph N/A   Mostly Cloudy
5:55 PM 59.0 °F - 32.0 °F 36% 29.92 in 10.0 mi NW 15.0 mph 19.6 mph N/A   Scattered Clouds
6:35 PM 59.0 °F - 30.2 °F 34% 29.93 in 10.0 mi NW 13.8 mph 18.4 mph N/A   Mostly Cloudy
7:15 PM 53.6 °F - 32.0 °F 44% 29.93 in 10.0 mi NW 8.1 mph - N/A   Clear
7:35 PM 53.6 °F - 32.0 °F 44% 29.94 in 10.0 mi WNW 6.9 mph - N/A   Clear
7:55 PM 51.8 °F - 32.0 °F 47% 29.94 in 10.0 mi NW 6.9 mph - N/A   Clear
8:15 PM 51.8 °F - 32.0 °F 47% 29.95 in 10.0 mi NW 9.2 mph - N/A   Clear
8:35 PM 50.0 °F - 32.0 °F 50% 29.95 in 10.0 mi NNW 5.8 mph - N/A   Clear
8:55 PM 48.2 °F - 32.0 °F 54% 29.95 in 10.0 mi North 4.6 mph - N/A   Clear
9:15 PM 46.4 °F 42.9 °F 32.0 °F 57% 29.96 in 10.0 mi NNW 6.9 mph - N/A   Clear
9:55 PM 46.4 °F 43.5 °F 32.0 °F 57% 29.97 in 10.0 mi NNW 5.8 mph - N/A   Clear
10:15 PM 44.6 °F 40.7 °F 33.8 °F 66% 29.97 in 10.0 mi NNW 6.9 mph - N/A   Clear
10:35 PM 44.6 °F 42.2 °F 33.8 °F 66% 29.97 in 10.0 mi NNW 4.6 mph - N/A   Clear
10:55 PM 44.6 °F 41.4 °F 33.8 °F 66% 29.97 in 10.0 mi NNW 5.8 mph - N/A   Clear
11:35 PM 44.6 °F 43.1 °F 33.8 °F 66% 29.97 in 10.0 mi NNW 3.5 mph - N/A   Clear
11:55 PM 44.6 °F - 33.8 °F 66% 29.97 in 10.0 mi Calm Calm - N/A   Clear